AirNav   ProFlight Series 2 Aviation Headset
 
 437 users online  

4TN4 Cotton Field Airport
Eads, Tennessee, USA

GOING TO EADS?


FAA INFORMATION EFFECTIVE 16 JULY 2020

Location

FAA Identifier: 4TN4
Lat/Long: 35-11-24.0000N 089-38-19.0000W
35-11.400000N 089-38.316667W
35.1900000,-89.6386111
(estimated)
Elevation: 345 ft. / 105 m (estimated)
Variation: 01E (1990)
From city: 1 mile SE of EADS, TN
Time zone: UTC -5 (UTC -6 during Standard Time)
Zip code: 38028

Airport Operations

Airport use: Private use. Permission required prior to landing
Activation date: 04/1993
Control tower: no
ARTCC: MEMPHIS CENTER
FSS: JACKSON FLIGHT SERVICE STATION
Attendance: UNATNDD
Segmented circle: no

Airport Communications

WX AWOS-3 at FYE (12 nm E): 119.875 (901-465-6367)
WX AWOS-3 at OLV (15 nm SW): 119.925 (662-893-5906)
WX AWOS-3 at NQA (15 nm NW): 118.925 (901-873-3630)
WX AWOS-A at 2M8 (15 nm W): 122.8 ((901) 873-0903)
WX ASOS at MEM (19 nm SW): 127.75 (901-842-8483)

Nearby radio navigation aids

VOR radial/distance  VOR name  Freq  Var
MEMr057/19.9MEMPHIS VORTAC117.5001E
HLIr341/26.1HOLLY SPRINGS VORTAC112.4003E

 
NDB name  Hdg/Dist  Freq  Var  ID
MERSY241/38.739401WMKL -- -.- .-..

Airport Services

Runway Information

Runway 13/31

Dimensions: 2600 x 100 ft. / 792 x 30 m
Surface: turf
RUNWAY 13  RUNWAY 31
Traffic pattern: leftleft
Obstructions: 50 ft. trees, 600 ft. from runwaynone

Airport Ownership and Management from official FAA records

Ownership: Privately-owned
Owner: BOBBIE MILLER
12630 COBURN RD
EADS, TN 38028
Phone 901-853-3963
Manager: BOBBIE MILLER
12630 COBURN RD
EADS, TN 38028
Phone 901-853-3963

Airport Operational Statistics

Aircraft based on the field: 5
Single engine airplanes: 5
    

Additional Remarks

FOR CD CTC MEMPHIS APCH AT 901-842-8457.

Instrument Procedures

There are no published instrument procedures at 4TN4.

Some nearby airports with instrument procedures:

KFYE - Fayette County Airport (12 nm E)
KOLV - Olive Branch Airport (15 nm SW)
KNQA - Millington-Memphis Airport (15 nm NW)
2M8 - Charles W Baker Airport (15 nm W)
KMEM - Memphis International Airport (19 nm SW)
 
Loc | Ops | Rwys | IFR | FBO | Links
Com | Nav | Svcs | Stats | Notes
Area around 4TN4 (Cotton Field Airport)
 
Road maps at: MapQuest Bing Google
 
Aerial photo
No photo
 
Sectional chart

 
Airport distance calculator
Flying to Cotton Field Airport? Find the distance to fly.

From to 4TN4

Sunrise and sunset
Times for 12-Aug-2020
 Local
(UTC-5)
 Zulu
(UTC)
Morning civil twilight05:5110:51
Sunrise06:1811:18
Sunset19:4900:49
Evening civil twilight20:1601:16

Current date and time
Zulu (UTC)  12-Aug-2020 06:43:40
Local (UTC-5)  12-Aug-2020 01:43:40
 
METAR
KFYE 
12nm E 
120615Z AUTO 00000KT 6SM BR FEW042 SCT095 BKN120 23/23 A2998 RMK A01
KOLV 
14nm SW 
120615Z AUTO 00000KT 10SM 23/23 A2998 RMK A01
KNQA 
15nm NW 
120550Z 00000KT 4SM BR BKN003 24/24 A2999
KMEM 
18nm SW 
120554Z 00000KT 10SM OVC140 24/23 A2999 RMK AO2 SLP150 60007 T02440228 10261 20239 403610239 50003
KM04 
24nm N 
120615Z AUTO 00000KT 9SM FEW047 SCT070 BKN100 23/23 A2999 RMK A01
TAF
KMEM 
18nm SW 
120520Z 1206/1312 VRB04KT P6SM FEW040 FM121400 10004KT P6SM VCTS SCT035CB FM130300 08005KT P6SM BKN035
NOTAMs
Click for the latest NOTAMs
NOTAMs are issued by the DoD/FAA and will open in a separate window not controlled by AirNav.

 

 
 

Would you like to see your business listed on this page?

 If your business provides an interesting product or service to pilots, flight crews, aircraft, or users of the Cotton Field Airport, you should consider listing it here.  To start the listing process, click on the button below
 
Add a business
 

Other Pages about Cotton Field Airport

Update a link
 
Copyright © AirNav, LLC. All rights reserved. Privacy Policy  Contact